Preview of NWS' New Version of Forecast
This preview is not operational and should not be used for support decisions.

Regional Weather Roundup (RWR)

Issued by National Weather Service (NWS)

                            
000
ASUS44 KMEG 211610
RWRTN 
TENNESSEE HOURLY STATE WEATHER ROUNDUP
NATIONAL WEATHER SERVICE MEMPHIS TN
1100 AM CDT SAT SEP 21 2019

TNZ002-004-019-021-049-052-054-088>092-211700-
WEST TENNESSEE
  
CITY           SKY/WX    TMP DP  RH WIND       PRES   REMARKS
MEMPHIS INTL   FAIR      86  58  38 S13       30.23F                  
NWS MEMPHIS      N/A     85 N/A N/A MISG        N/A                   
JACKSON        FAIR      84  62  47 S9        30.26S                  
DYERSBURG      FAIR      84  59  42 S10       30.24F                  
SOMERVILLE     SUNNY     84  61  45 S9G16     30.23F                  
UNION CITY     SUNNY     86  57  37 SW9G18    30.22F                  
BOLIVAR        SUNNY     82  63  51 SE7       30.24F                  
PARIS          SUNNY     82  55  39 S13       30.25S                  
HUNTINGDON     SUNNY     84  61  45 S9        30.25F                  
LEXINGTON      SUNNY     82  59  44 S10G18    30.26F                  
SELMER         SUNNY     82  59  44 SW8G15    30.26S                  
SAVANNAH       SUNNY     84  61  45 S8        30.26F                  
$$

TNZ008-025-027-028-033-062-065-066-211700-
NORTH MIDDLE TENNESSEE
  
CITY           SKY/WX    TMP DP  RH WIND       PRES   REMARKS
NASHVILLE      PTSUNNY   84  53  34 S10       30.29F                  
DICKSON        SUNNY     82  54  36 S8G14     30.28S                  
PORTLAND       SUNNY     82  57  42 S12       30.28F                  
CLARKSVILLE    FAIR      85  55  35 SW8       30.26F                  
LEBANON        SUNNY     84  54  34 SW9       30.27F                  
SMYRNA         FAIR      85  57  38 S8        30.30F                  
MURFREESBORO   SUNNY     82  54  36 S10       30.28S                  
COOKEVILLE       N/A     82  54  36 SW9       30.31                   
LIVINGSTON     SUNNY     81  48  32 S9        30.32F                  
CROSSVILLE     FAIR      76  52  43 VRB7      30.37F                  
ROCKWOOD       SUNNY     77  55  47 VRB6G12   30.35F                  
$$

TNZ061-075-076-078-094-096-097-211700-
SOUTH MIDDLE TENNESSEE
  
CITY           SKY/WX    TMP DP  RH WIND       PRES   REMARKS
LAWRENCEBURG   SUNNY     82  57  42 SE9       30.29F                  
LEWISBURG      SUNNY     82  57  42 S9        30.29S                  
FAYETTEVILLE   SUNNY     81  59  47 S13       30.30F                  
TULLAHOMA      SUNNY     81  57  44 S8G15     30.31S                  
WINCHESTER     SUNNY     82  57  42 VRB6G14   30.30F                  
MCMINNVILLE    SUNNY     82  55  39 VRB6      30.30F                  
COLUMBIA       SUNNY     81  55  41 VRB3      30.27S                  
SHELBYVILLE    SUNNY     82  55  39 S12       30.30S                  
$$

TNZ017-018-042-046-047-211700-
NORTHEAST TENNESSEE
  
CITY           SKY/WX    TMP DP  RH WIND       PRES   REMARKS
TRI CITIES     FAIR      79  61  53 W6        30.35F                  
ELIZABETHTON   FAIR      77  61  57 CALM      30.35F                  
GREENEVILLE    SUNNY     77  57  50 NW5       30.35F                  
$$

TNZ012-013-036-069-073-074-211700-
CENTRAL EAST TENNESSEE
  
CITY           SKY/WX    TMP DP  RH WIND       PRES   REMARKS
KNOXVILLE      FAIR      78  56  46 S6        30.32F                  
OAK RIDGE      FAIR      80  56  43 VRB5      30.34F                  
DOWNTOWN KNOXV SUNNY     81  57  44 W6        30.32F                  
GATLINBURG     SUNNY     81  59  47 CALM      30.32F                  
MORRISTOWN     SUNNY     81  55  41 NW7       30.33F                  
JACKSBORO      SUNNY     79  63  57 NE5       30.36F                  
$$

TNZ083-085-099-211700-
SOUTHEAST TENNESSEE
  
CITY           SKY/WX    TMP DP  RH WIND       PRES   REMARKS
CHATTANOOGA    FAIR      80  61  52 E5        30.32F                  
$$

SKY/WX REPORTED AS FAIR MEANS FEW OR NO CLOUDS BELOW
12 THOUSAND FEET.